When you browse on this site, cookies collect data to enhance your experience and personalize the content and advertising you see.
Visit our Privacy Policy to learn more. By continuing to use the site, you agree to this use of cookies and data.
  • In United Kingdom
  • List of Countries
  • For 7 days
  • Water Temperature
  • Satellite Maps
  • Weather Map
  • Weather Widgets
  • user-avatar
    Login

    Hourly Weather Yulara

    Today, 22 July, Monday

    Time Temperature Precipitation Wind Pressure Humidity
    00:00 +10°C° 0 mm 2 mps 718 mmHg 49%
    01:00 +10°C° 0 mm 2 mps 718 mmHg 50%
    02:00 +9°C° 0 mm 2 mps 717 mmHg 51%
    03:00 +9°C° 0 mm 3 mps 717 mmHg 49%
    04:00 +8°C° 0 mm 3 mps 717 mmHg 51%
    05:00 +8°C° 0 mm 2 mps 718 mmHg 54%
    06:00 +7°C° 0 mm 2 mps 718 mmHg 56%
    07:00 +9°C° 0 mm 2 mps 718 mmHg 50%
    08:00 +12°C° 0 mm 2 mps 719 mmHg 45%
    09:00 +14°C° 0 mm 2 mps 719 mmHg 39%
    10:00 +16°C° 0 mm 2 mps 719 mmHg 36%
    11:00 +19°C° 0 mm 1 mps 719 mmHg 33%
    12:00 +22°C° 0 mm 1 mps 719 mmHg 30%
    13:00 +23°C° 0 mm 1 mps 718 mmHg 27%
    14:00 +24°C° 0 mm 1 mps 718 mmHg 23%
    15:00 +25°C° 0 mm 1 mps 718 mmHg 20%
    16:00 +22°C° 0 mm 1 mps 718 mmHg 29%
    17:00 +19°C° 0 mm 1 mps 717 mmHg 38%
    18:00 +15°C° 0 mm 1 mps 717 mmHg 47%
    19:00 +15°C° 0 mm 2 mps 718 mmHg 42%
    20:00 +15°C° 0 mm 2 mps 718 mmHg 37%
    21:00 +14°C° 0 mm 3 mps 719 mmHg 32%
    22:00 +13°C° 0 mm 3 mps 719 mmHg 30%
    23:00 +13°C° 0 mm 4 mps 719 mmHg 28%

    Tomorrow, 23 July, Tuesday

    Time Temperature Precipitation Wind Pressure Humidity
    00:00 +12°C° 0 mm 4 mps 719 mmHg 25%
    01:00 +11°C° 0 mm 4 mps 719 mmHg 27%
    02:00 +11°C° 0 mm 4 mps 719 mmHg 29%
    03:00 +10°C° 0 mm 4 mps 720 mmHg 31%
    04:00 +10°C° 0 mm 4 mps 720 mmHg 34%
    05:00 +8°C° 0 mm 4 mps 720 mmHg 37%
    06:00 +9°C° 0 mm 3 mps 721 mmHg 39%
    07:00 +11°C° 0 mm 4 mps 721 mmHg 36%
    08:00 +13°C° 0 mm 4 mps 722 mmHg 32%
    09:00 +15°C° 0 mm 5 mps 722 mmHg 29%
    10:00 +17°C° 0 mm 5 mps 722 mmHg 26%
    11:00 +20°C° 0 mm 5 mps 722 mmHg 24%
    12:00 +22°C° 0 mm 6 mps 722 mmHg 21%
    13:00 +23°C° 0 mm 5 mps 721 mmHg 21%
    14:00 +25°C° 0 mm 5 mps 721 mmHg 20%
    15:00 +26°C° 0 mm 4 mps 721 mmHg 19%
    16:00 +23°C° 0 mm 4 mps 721 mmHg 22%
    17:00 +21°C° 0 mm 4 mps 721 mmHg 25%
    18:00 +19°C° 0 mm 4 mps 721 mmHg 28%
    19:00 +18°C° 0 mm 4 mps 721 mmHg 30%
    20:00 +16°C° 0 mm 5 mps 722 mmHg 31%
    21:00 +16°C° 0 mm 5 mps 722 mmHg 32%
    22:00 +14°C° 0 mm 5 mps 722 mmHg 34%
    23:00 +13°C° 0 mm 5 mps 722 mmHg 37%

    Day after tomorrow, 24 July, Wednesday

    Time Temperature Precipitation Wind Pressure Humidity
    00:00 +12°C° 0 mm 5 mps 722 mmHg 39%
    01:00 +12°C° 0 mm 4 mps 722 mmHg 42%
    02:00 +11°C° 0 mm 4 mps 722 mmHg 45%
    03:00 +10°C° 0 mm 4 mps 722 mmHg 48%
    04:00 +10°C° 0 mm 4 mps 723 mmHg 52%
    05:00 +8°C° 0 mm 5 mps 723 mmHg 55%
    06:00 +8°C° 0 mm 5 mps 723 mmHg 59%
    07:00 +9°C° 0 mm 5 mps 724 mmHg 54%
    08:00 +11°C° 0 mm 6 mps 724 mmHg 49%
    09:00 +13°C° 0 mm 6 mps 725 mmHg 44%
    10:00 +16°C° 0 mm 6 mps 725 mmHg 37%
    11:00 +19°C° 0 mm 6 mps 724 mmHg 31%
    12:00 +22°C° 0 mm 6 mps 724 mmHg 24%
    13:00 +23°C° 0 mm 6 mps 724 mmHg 23%
    14:00 +23°C° 0 mm 5 mps 723 mmHg 22%
    15:00 +25°C° 0 mm 5 mps 722 mmHg 21%
    16:00 +22°C° 0 mm 4 mps 722 mmHg 24%
    17:00 +20°C° 0 mm 4 mps 722 mmHg 27%
    18:00 +18°C° 0 mm 3 mps 722 mmHg 31%
    19:00 +17°C° 0 mm 4 mps 723 mmHg 32%
    20:00 +15°C° 0 mm 4 mps 723 mmHg 34%
    21:00 +14°C° 0 mm 4 mps 723 mmHg 35%
    22:00 +13°C° 0 mm 4 mps 723 mmHg 37%
    23:00 +13°C° 0 mm 4 mps 723 mmHg 38%

    25 July, Thursday

    Time Temperature Precipitation Wind Pressure Humidity
    00:00 +12°C° 0 mm 4 mps 723 mmHg 40%
    01:00 +11°C° 0 mm 3 mps 723 mmHg 42%
    02:00 +11°C° 0 mm 3 mps 722 mmHg 44%
    03:00 +11°C° 0 mm 3 mps 722 mmHg 46%
    04:00 +11°C° 0 mm 3 mps 722 mmHg 46%
    05:00 +11°C° 0 mm 3 mps 723 mmHg 47%
    06:00 +11°C° 0 mm 3 mps 723 mmHg 47%
    07:00 +12°C° 0 mm 3 mps 723 mmHg 44%
    08:00 +13°C° 0 mm 3 mps 723 mmHg 42%
    09:00 +14°C° 0 mm 3 mps 724 mmHg 39%
    10:00 +17°C° 0 mm 3 mps 723 mmHg 34%
    11:00 +19°C° 0 mm 3 mps 723 mmHg 30%
    12:00 +21°C° 0 mm 3 mps 723 mmHg 25%
    13:00 +22°C° 0 mm 3 mps 722 mmHg 23%
    14:00 +24°C° 0 mm 3 mps 721 mmHg 21%
    15:00 +25°C° 0 mm 3 mps 721 mmHg 19%
    16:00 +22°C° 0 mm 3 mps 721 mmHg 22%
    17:00 +20°C° 0 mm 3 mps 721 mmHg 25%
    18:00 +18°C° 0 mm 3 mps 721 mmHg 28%
    19:00 +17°C° 0 mm 3 mps 721 mmHg 29%
    20:00 +16°C° 0 mm 3 mps 721 mmHg 31%
    21:00 +14°C° 0 mm 3 mps 721 mmHg 32%
    22:00 +14°C° 0 mm 3 mps 721 mmHg 33%
    23:00 +13°C° 0 mm 3 mps 721 mmHg 33%

    26 July, Friday

    Time Temperature Precipitation Wind Pressure Humidity
    00:00 +13°C° 0 mm 3 mps 721 mmHg 34%
    01:00 +12°C° 0 mm 3 mps 721 mmHg 35%
    02:00 +11°C° 0 mm 3 mps 720 mmHg 36%
    03:00 +10°C° 0 mm 3 mps 720 mmHg 37%
    04:00 +10°C° 0 mm 3 mps 720 mmHg 39%
    05:00 +10°C° 0 mm 3 mps 720 mmHg 41%
    06:00 +9°C° 0 mm 3 mps 720 mmHg 43%
    07:00 +11°C° 0 mm 3 mps 720 mmHg 39%
    08:00 +14°C° 0 mm 3 mps 721 mmHg 34%
    09:00 +17°C° 0 mm 3 mps 721 mmHg 30%
    10:00 +19°C° 0 mm 3 mps 721 mmHg 27%
    11:00 +21°C° 0 mm 4 mps 721 mmHg 23%
    12:00 +25°C° 0 mm 4 mps 721 mmHg 19%
    13:00 +25°C° 0 mm 4 mps 720 mmHg 19%
    14:00 +26°C° 0 mm 3 mps 720 mmHg 19%
    15:00 +27°C° 0 mm 3 mps 719 mmHg 19%
    16:00 +24°C° 0 mm 3 mps 719 mmHg 22%
    17:00 +21°C° 0 mm 3 mps 719 mmHg 25%
    18:00 +19°C° 0 mm 3 mps 719 mmHg 29%
    19:00 +18°C° 0 mm 3 mps 719 mmHg 30%
    20:00 +17°C° 0 mm 3 mps 720 mmHg 32%
    21:00 +15°C° 0 mm 4 mps 720 mmHg 34%
    22:00 +15°C° 0 mm 4 mps 720 mmHg 35%
    23:00 +14°C° 0 mm 4 mps 720 mmHg 36%

    27 July, Saturday

    Time Temperature Precipitation Wind Pressure Humidity
    00:00 +13°C° 0 mm 4 mps 720 mmHg 37%
    01:00 +12°C° 0 mm 4 mps 720 mmHg 38%
    02:00 +12°C° 0 mm 3 mps 719 mmHg 38%
    03:00 +11°C° 0 mm 3 mps 719 mmHg 38%
    04:00 +10°C° 0 mm 3 mps 719 mmHg 39%
    05:00 +10°C° 0 mm 2 mps 719 mmHg 41%
    06:00 +9°C° 0 mm 2 mps 719 mmHg 42%
    07:00 +12°C° 0 mm 3 mps 720 mmHg 37%
    08:00 +14°C° 0 mm 3 mps 721 mmHg 32%
    09:00 +17°C° 0 mm 3 mps 721 mmHg 28%
    10:00 +20°C° 0 mm 3 mps 721 mmHg 24%
    11:00 +22°C° 0 mm 3 mps 721 mmHg 21%
    12:00 +25°C° 0 mm 3 mps 720 mmHg 18%
    13:00 +26°C° 0 mm 3 mps 720 mmHg 17%
    14:00 +26°C° 0 mm 2 mps 719 mmHg 17%
    15:00 +27°C° 0 mm 1 mps 719 mmHg 16%
    16:00 +24°C° 0 mm 2 mps 719 mmHg 19%
    17:00 +21°C° 0 mm 2 mps 719 mmHg 23%
    18:00 +18°C° 0 mm 2 mps 718 mmHg 26%
    19:00 +18°C° 0 mm 3 mps 719 mmHg 27%
    20:00 +17°C° 0 mm 3 mps 719 mmHg 29%
    21:00 +17°C° 0 mm 4 mps 720 mmHg 30%
    22:00 +15°C° 0 mm 4 mps 720 mmHg 31%
    23:00 +14°C° 0 mm 4 mps 720 mmHg 33%
    Show more